EW1423 Weather Reports


time (UTC)temp
C
wind
direction
speed
KPH
gust
KPH
rain 1hr
cm
rain 24hr
cm
rain mn
cm
humidity
%
barometer
mb
20260502190804 16 153 0.0 0.0 0.00 0.00 0.00 63 1016.3
20260502190304 16 153 0.0 0.0 0.00 0.00 0.00 62 1016.3
20260502185804 16 153 0.0 0.0 0.00 0.00 0.00 63 1016.1
20260502185305 17 153 0.0 0.0 0.00 0.00 0.00 59 1016.1
20260502184804 17 153 0.0 0.0 0.00 0.00 0.00 59 1016.1
20260502183303 18 153 0.0 0.0 0.00 0.00 0.00 55 1016.1
20260502182803 19 153 0.0 0.0 0.00 0.00 0.00 53 1016.1
20260502182305 19 153 0.0 1.6 0.00 0.00 0.00 54 1016.1
20260502181803 20 153 0.0 1.6 0.00 0.00 0.00 51 1016.1
20260502181304 20 153 0.0 0.0 0.00 0.00 0.00 50 1015.9
20260502180303 21 153 0.0 1.6 0.00 0.00 0.00 47 1016.2
20260502170303 26 186 0.0 3.2 0.00 0.00 0.00 28 1016.3
20260502163804 27 99 3.2 4.8 0.00 0.00 0.00 24 1016.5
20260502163304 27 173 0.0 3.2 0.00 0.00 0.00 23 1016.5
20260502162804 28 159 0.0 8.0 0.00 0.00 0.00 23 1016.5
20260502162304 28 116 0.0 8.0 0.00 0.00 0.00 23 1016.6
20260502161804 28 101 0.0 3.2 0.00 0.00 0.00 21 1017.0
20260502161304 28 101 1.6 3.2 0.00 0.00 0.00 22 1017.0
20260502160803 28 97 1.6 4.8 0.00 0.00 0.00 23 1017.0
20260502160304 28 137 1.6 3.2 0.00 0.00 0.00 21 1017.0
20260502152305 28 135 1.6 4.8 0.00 0.00 0.00 22 1017.8
20260502151803 29 13 1.6 3.2 0.00 0.00 0.00 23 1017.8
20260502150803 28 46 1.6 9.7 0.00 0.00 0.00 21 1017.8
20260502150304 28 147 1.6 8.0 0.00 0.00 0.00 24 1017.8
20260502130303 27 104 1.6 8.0 0.00 0.00 0.00 31 1019.5
20260502123303 26 107 3.2 8.0 0.00 0.00 0.00 31 1019.7
20260502122306 26 164 3.2 4.8 0.00 0.00 0.00 32 1019.8
20260502121803 26 286 1.6 4.8 0.00 0.00 0.00 36 1019.8
20260502121304 26 181 1.6 8.0 0.00 0.00 0.00 34 1020.2
20260502120804 26 165 3.2 8.0 0.00 0.00 0.00 33 1020.2
20260502120303 26 331 3.2 8.0 0.00 0.00 0.00 34 1020.2
20260502115803 26 264 1.6 9.7 0.00 0.00 0.00 34 1020.2
20260502115306 26 288 1.6 8.0 0.00 0.00 0.00 37 1020.2
20260502114803 26 234 1.6 9.7 0.00 0.00 0.00 36 1020.3
20260502114303 26 250 1.6 4.8 0.00 0.00 0.00 35 1021.3
20260502113804 26 123 1.6 3.2 0.00 0.00 0.00 35 1021.3
20260502113303 26 98 1.6 4.8 0.00 0.00 0.00 37 1021.3
20260502112803 26 345 1.6 4.8 0.00 0.00 0.00 38 1021.3
20260502112306 26 270 3.2 9.7 0.00 0.00 0.00 35 1021.3
20260502111804 26 287 1.6 8.0 0.00 0.00 0.00 36 1021.3
20260502111303 26 294 3.2 9.7 0.00 0.00 0.00 41 1021.3
20260502110304 26 298 1.6 4.8 0.00 0.00 0.00 38 1021.3
20260502105804 25 295 3.2 9.7 0.00 0.00 0.00 38 1021.3
20260502104804 25 146 1.6 11.3 0.00 0.00 0.00 40 1021.3
20260502104303 25 164 1.6 8.0 0.00 0.00 0.00 40 1021.3
20260502103803 25 337 3.2 9.7 0.00 0.00 0.00 40 1021.3
20260502103304 25 318 1.6 3.2 0.00 0.00 0.00 40 1021.5
20260502102804 25 318 0.0 8.0 0.00 0.00 0.00 38 1021.5
20260502102306 25 243 0.0 4.8 0.00 0.00 0.00 36 1021.7
20260502101803 25 271 1.6 11.3 0.00 0.00 0.00 40 1021.7
20260502101303 25 275 1.6 4.8 0.00 0.00 0.00 39 1021.7
20260502100803 25 61 0.0 3.2 0.00 0.00 0.00 38 1021.9
20260502100303 23 61 1.6 3.2 0.00 0.00 0.00 40 1021.9
20260502091303 21 83 1.6 4.8 0.00 0.00 0.00 45 1022.4
20260502090804 21 87 1.6 8.0 0.00 0.00 0.00 48 1022.4
20260502071304 15 137 1.6 4.8 0.00 0.00 0.00 59 1022.9
20260502070804 15 85 1.6 4.8 0.00 0.00 0.00 63 1022.9
20260502070303 15 97 1.6 3.2 0.00 0.00 0.00 62 1022.9
20260502065306 13 67 3.2 8.0 0.00 0.00 0.00 64 1023.0
20260502064803 13 77 1.6 4.8 0.00 0.00 0.00 65 1023.0
20260502064303 13 97 1.6 4.8 0.00 0.00 0.00 66 1023.1
20260502063303 12 88 1.6 4.8 0.00 0.00 0.00 69 1023.1
20260502062804 12 146 3.2 4.8 0.00 0.00 0.00 69 1023.1
20260502062306 11 138 1.6 4.8 0.00 0.00 0.00 72 1023.1
20260502061803 11 98 1.6 4.8 0.00 0.00 0.00 73 1023.1
20260502061304 11 138 1.6 3.2 0.00 0.00 0.00 74 1023.1
20260502060803 10 134 3.2 8.0 0.00 0.00 0.00 75 1023.2
20260502060303 10 136 0.0 3.2 0.00 0.00 0.00 77 1023.2
20260502054804 8 145 1.6 4.8 0.00 0.00 0.00 83 1023.2
20260502054303 8 114 1.6 4.8 0.00 0.00 0.00 84 1023.2
20260502053803 7 149 3.2 9.7 0.00 0.00 0.00 85 1023.3
20260502053304 7 159 1.6 8.0 0.00 0.00 0.00 86 1023.3
20260502052804 7 155 3.2 9.7 0.00 0.00 0.00 88 1023.2
20260502051804 6 94 1.6 4.8 0.00 0.00 0.00 90 1023.2
20260502050803 6 134 0.0 3.2 0.00 0.00 0.00 91 1023.2
20260502050303 5 142 1.6 8.0 0.00 0.00 0.00 92 1023.2
20260502045803 5 132 0.0 3.2 0.00 0.00 0.00 92 1023.2
20260502045306 5 132 0.0 3.2 0.00 0.00 0.00 93 1023.2
20260502044803 5 132 0.0 1.6 0.00 0.00 0.00 95 1023.2
20260502044304 4 132 0.0 1.6 0.00 0.00 0.00 95 1023.2
20260502043303 4 132 0.0 1.6 0.00 0.00 0.00 96 1023.2
20260502042804 4 132 0.0 0.0 0.00 0.00 0.00 96 1023.2
20260502041303 4 132 0.0 0.0 0.00 0.00 0.00 95 1023.2
20260502040804 4 132 0.0 0.0 0.00 0.00 0.00 94 1023.2
20260502040304 4 132 0.0 0.0 0.00 0.00 0.00 94 1023.2
20260502035803 4 132 0.0 0.0 0.00 0.00 0.00 93 1023.1
20260502035306 5 132 0.0 0.0 0.00 0.00 0.00 92 1023.1
20260502034803 5 132 0.0 0.0 0.00 0.00 0.00 92 1023.1
20260502034303 5 132 0.0 0.0 0.00 0.00 0.00 93 1023.1
20260502033804 5 132 0.0 1.6 0.00 0.00 0.00 93 1023.1
20260502033304 5 132 0.0 1.6 0.00 0.00 0.00 93 1023.1
20260502032803 5 132 0.0 0.0 0.00 0.00 0.00 93 1023.0
20260502032306 5 132 0.0 0.0 0.00 0.00 0.00 93 1023.0
20260502031804 5 132 0.0 1.6 0.00 0.00 0.00 93 1023.0
20260502031305 5 132 0.0 3.2 0.00 0.00 0.00 93 1022.7
20260502030804 5 134 0.0 3.2 0.00 0.00 0.00 93 1022.7
20260502025804 5 134 0.0 0.0 0.00 0.00 0.00 93 1023.1
20260502025306 5 134 0.0 1.6 0.00 0.00 0.00 93 1023.1
20260502024804 5 134 0.0 0.0 0.00 0.00 0.00 92 1023.1
20260502023803 5 134 0.0 0.0 0.00 0.00 0.00 91 1023.1
20260502023303 5 134 0.0 1.6 0.00 0.00 0.00 91 1023.2
20260502022803 5 134 0.0 1.6 0.00 0.00 0.00 92 1023.4
20260502022306 5 134 0.0 1.6 0.00 0.00 0.00 92 1023.4
20260502021304 5 134 0.0 0.0 0.00 0.00 0.00 91 1023.4
20260502020804 5 134 0.0 0.0 0.00 0.00 0.00 91 1023.4
20260502020303 5 134 0.0 1.6 0.00 0.00 0.00 91 1023.4
20260502015803 5 134 0.0 0.0 0.00 0.00 0.00 91 1023.4
20260502015305 5 134 0.0 1.6 0.00 0.00 0.00 91 1023.6
20260502014803 5 134 0.0 1.6 0.00 0.00 0.00 91 1023.6
20260502014303 6 134 0.0 0.0 0.00 0.00 0.00 90 1023.6
20260502013804 6 134 0.0 0.0 0.00 0.00 0.00 91 1023.6
20260502013303 5 134 0.0 3.2 0.00 0.00 0.00 91 1023.5
20260502012804 5 114 0.0 0.0 0.00 0.00 0.00 91 1023.8
20260502012306 5 114 0.0 0.0 0.00 0.00 0.00 91 1023.8
20260502011803 5 114 0.0 0.0 0.00 0.00 0.00 91 1023.8
20260502011304 5 114 0.0 0.0 0.00 0.00 0.00 91 1023.8
20260502010803 5 114 0.0 0.0 0.00 0.00 0.00 90 1023.8
20260502010304 5 114 0.0 0.0 0.00 0.00 0.00 91 1023.8
20260502005803 5 114 0.0 0.0 0.00 0.00 0.00 90 1023.8
20260502005306 5 114 0.0 0.0 0.00 0.00 0.00 89 1023.8
20260502004803 6 114 0.0 0.0 0.00 0.00 0.00 90 1023.9
20260502003804 6 114 0.0 0.0 0.00 0.00 0.00 88 1024.2
20260502003303 6 114 0.0 0.0 0.00 0.00 0.00 89 1024.2
20260502002804 6 114 0.0 0.0 0.00 0.00 0.00 89 1024.2
20260502002305 6 114 0.0 0.0 0.00 0.00 0.00 88 1024.2
20260502001804 6 114 0.0 0.0 0.00 0.00 0.00 88 1024.2
20260502001303 6 114 0.0 0.0 0.00 0.00 0.00 86 1024.2
20260502000803 6 114 0.0 0.0 0.00 0.00 0.00 85 1024.2
20260501235804 6 114 0.0 0.0 0.00 0.00 0.00 85 1024.2
20260501235305 7 114 0.0 0.0 0.00 0.00 0.00 85 1024.2
20260501234804 6 114 0.0 0.0 0.00 0.00 0.00 86 1024.2
20260501234304 7 114 0.0 0.0 0.00 0.00 0.00 84 1024.2
20260501233804 7 114 0.0 0.0 0.00 0.00 0.00 85 1024.2
20260501233303 7 114 0.0 0.0 0.00 0.00 0.00 84 1024.2
20260501232803 7 114 0.0 0.0 0.00 0.00 0.00 84 1024.2
20260501232306 7 114 0.0 0.0 0.00 0.00 0.00 84 1024.2
20260501231804 7 114 0.0 0.0 0.00 0.00 0.00 84 1024.2
20260501231304 7 114 0.0 0.0 0.00 0.00 0.00 83 1024.2
20260501230803 7 114 0.0 0.0 0.00 0.00 0.00 82 1024.2
20260501225803 8 114 0.0 0.0 0.00 0.00 0.00 81 1024.2
20260501225306 8 114 0.0 0.0 0.00 0.00 0.00 81 1024.2
20260501224804 8 114 0.0 0.0 0.00 0.00 0.00 80 1024.2
20260501224304 8 114 0.0 0.0 0.00 0.00 0.00 79 1024.2
20260501223803 8 114 0.0 1.6 0.00 0.00 0.00 79 1024.2
20260501223304 8 114 0.0 0.0 0.00 0.00 0.00 79 1024.2
20260501222804 8 114 0.0 0.0 0.00 0.00 0.00 78 1024.2
20260501222305 8 114 0.0 0.0 0.00 0.00 0.00 79 1024.2
20260501221803 8 114 0.0 0.0 0.00 0.00 0.00 78 1024.2
20260501221303 8 114 0.0 0.0 0.00 0.00 0.00 78 1024.2
20260501220810 8 114 0.0 0.0 0.00 0.00 0.00 77 1023.9
20260501220303 9 114 0.0 0.0 0.00 0.00 0.00 77 1023.9
20260501215804 9 114 0.0 1.6 0.00 0.00 0.00 77 1023.9
20260501215305 9 114 0.0 0.0 0.00 0.00 0.00 76 1023.9
20260501214803 9 114 0.0 0.0 0.00 0.00 0.00 77 1023.9
20260501214304 9 114 0.0 0.0 0.00 0.00 0.00 76 1023.9
20260501213804 9 114 0.0 0.0 0.00 0.00 0.00 76 1024.0
20260501213304 10 114 0.0 0.0 0.00 0.00 0.00 75 1024.0
20260501212803 10 114 0.0 0.0 0.00 0.00 0.00 75 1024.0
20260501211804 10 114 0.0 0.0 0.00 0.00 0.00 75 1023.8
20260501211303 10 114 0.0 0.0 0.00 0.00 0.00 73 1023.8
20260501210804 10 114 0.0 0.0 0.00 0.00 0.00 73 1023.8
20260501210303 10 114 0.0 0.0 0.00 0.00 0.00 72 1023.8
20260501205319 11 114 0.0 0.0 0.00 0.00 0.00 70 1023.9
20260501204804 11 114 0.0 0.0 0.00 0.00 0.00 69 1023.8
20260501204304 11 114 0.0 0.0 0.00 0.00 0.00 68 1023.8
20260501203303 11 114 0.0 0.0 0.00 0.00 0.00 67 1023.7
20260501202804 12 114 0.0 1.6 0.00 0.00 0.00 66 1023.7
20260501202306 12 114 0.0 1.6 0.00 0.00 0.00 66 1023.7
20260501201804 12 114 0.0 0.0 0.00 0.00 0.00 66 1023.7
20260501201304 12 114 0.0 0.0 0.00 0.00 0.00 65 1023.7
20260501200804 12 114 0.0 0.0 0.00 0.00 0.00 65 1023.7
20260501200303 12 114 0.0 1.6 0.00 0.00 0.00 64 1023.7
20260501195803 12 114 0.0 0.0 0.00 0.00 0.00 63 1023.6
20260501195306 12 114 0.0 0.0 0.00 0.00 0.00 62 1023.6
20260501194804 13 114 0.0 0.0 0.00 0.00 0.00 61 1023.5
20260501193804 13 114 0.0 0.0 0.00 0.00 0.00 58 1023.3
20260501192803 14 114 0.0 0.0 0.00 0.00 0.00 54 1023.3
20260501192306 15 114 0.0 0.0 0.00 0.00 0.00 52 1023.3
20260501191304 16 114 0.0 0.0 0.00 0.00 0.00 48 1023.3